Location: Unspecified
(42.3650°N, 71.1030°W)
Time: 22:30:12
(UTC+00:00)

Courier 1B Rocket - Pass Details

Date: 28 June 2024
Orbit: 920 x 1201 km, 28.2° (Epoch: 14 July)

Event Time Altitude Azimuth Distance (km) Brightness Sun altitude
Exits shadow 07:03:14 23° 185° (S) 1,934 6.1 -17.3°
Maximum altitude 07:03:31 23° 181° (S) 1,934 6.1 -17.3°
Drops below altitude 10° 07:08:35 10° 132° (SE) 2,779 7.3 -16.8°
Sets 07:11:55 0° 118° (ESE) 3,782 8.2 -16.4°
